[[{"header":{"parameterUnit":"m.s-1","parameterCategory":1,"la1":30.2991,"la2":30.254,"lo1":-89.0895,"lo2":-89.0444,"dy":0.0017,"dx":0.0017,"nx":28,"ny":28,"refTime":"2024-10-10T09:00:00:Z","depth":0,"parameterNumber":2,"parameterNumberName":"U-component_of_WINDS"},"data":[0,0,0,0,0,0,0,0,0,0,0,0,0,0,0,0,0,0,0,0,0,0,0,0,0,0,0,0,0,0,0,0,0,0,0,0,0,0,0,0,0,0,0,0,0,0,0,0,0,0,0,0,0,0,0,0,0,0,-1.6161,-1.6161,0,-1.6159,-1.6159,-1.6159,-1.6075,-1.6072,-1.607,-1.6068,-1.6069,-1.6071,-1.6073,0,0,0,0,0,0,0,0,0,0,0,0,0,-1.6096,-1.6097,-1.6161,-1.6161,-1.6161,-1.6159,-1.6159,-1.6159,-1.6075,-1.6072,-1.607,-1.6067,-1.6068,-1.607,-1.6073,0,0,0,0,0,0,0,0,0,0,0,0,0,-1.6112,-1.6098,-1.6161,-1.6119,-1.6115,-1.6159,-1.6159,-1.6159,-1.6076,-1.6072,-1.6069,-1.6066,-1.6067,-1.607,-1.6073,-1.6158,0,0,-1.6083,-1.6084,0,0,0,0,0,0,0,0,-1.6111,-1.6114,-1.6125,-1.6122,-1.6118,-1.6114,-1.6136,-1.6159,-1.6076,-1.6091,-1.6068,-1.6064,-1.6087,-1.6088,-1.6095,-1.6158,-1.6158,-1.6083,-1.6085,-1.6086,-1.6087,0,0,0,0,0,0,0,-1.611,-1.6114,-1.616,-1.6125,-1.6121,-1.6101,-1.61,-1.614,-1.6107,-1.6089,-1.6083,-1.6084,-1.6084,-1.6092,-1.6094,-1.6158,-1.6083,-1.6086,-1.6088,-1.6089,-1.6292,-1.6296,0,0,0,0,0,0,-1.6114,-1.6114,-1.616,-1.616,-1.6106,-1.6105,-1.6103,-1.6118,-1.6106,-1.6101,-1.6087,-1.608,-1.6088,-1.6091,-1.6094,-1.6193,-1.6086,-1.6089,-1.6091,-1.6289,-1.6293,-1.6297,0,0,0,0,0,0,-1.6113,-1.6119,-1.616,-1.6135,-1.6139,-1.6109,-1.6127,-1.612,-1.6128,-1.6104,-1.6098,-1.6101,-1.6086,-1.6089,-1.6143,-1.6192,-1.609,-1.6093,-1.6285,-1.629,-1.6295,-1.6393,0,0,0,0,0,0,-1.6112,-1.6119,-1.6151,-1.6137,-1.6141,-1.6209,-1.613,-1.6122,-1.6133,-1.6124,-1.6116,-1.6112,-1.6083,-1.6139,-1.6146,-1.6195,-1.6096,-1.628,-1.6287,-1.6293,-1.6385,-1.6401,-1.6415,0,0,0,0,0,-1.611,-1.6179,-1.6153,-1.6159,-1.6179,-1.6212,-1.6214,-1.618,-1.6137,-1.6169,-1.6154,-1.6112,-1.6185,-1.6145,-1.6152,-1.6203,-1.6277,-1.6285,-1.6293,-1.6379,-1.6398,-1.6414,0,0,0,0,0,0,-1.6201,-1.6176,-1.6147,-1.6213,-1.6215,-1.6198,-1.6237,-1.6201,-1.6216,-1.6207,-1.6164,-1.6163,-1.6224,-1.6218,-1.6173,-1.6285,-1.6224,-1.6234,-1.6286,-1.6305,-1.6319,-1.632,-1.6098,0,0,0,0,0,-1.6228,-1.6256,-1.6233,-1.6294,-1.6297,-1.6267,-1.628,-1.6253,-1.6253,-1.6254,-1.6243,-1.6246,-1.627,-1.6286,-1.6307,-1.6383,-1.6381,-1.6422,-1.6436,-1.6449,-1.6458,-1.65,-1.6518,-1.6323,-1.6323,-1.6323,0,0,-1.6286,-1.6276,-1.6296,-1.6312,-1.631,-1.6342,-1.6268,-1.6304,-1.6327,-1.626,-1.631,-1.6302,-1.6302,-1.6368,-1.6396,-1.6365,-1.6511,-1.6459,-1.6469,-1.6472,-1.651,-1.6529,-1.6545,-1.6329,-1.6328,-1.6327,0,0,-1.6407,-1.6402,-1.6452,-1.6452,-1.645,-1.6429,-1.6442,-1.643,-1.6422,-1.6471,-1.6421,-1.6448,-1.649,-1.6493,-1.65,-1.6622,-1.6585,-1.663,-1.6707,-1.6748,-1.6764,-1.6777,-1.6823,-1.6839,-1.6639,-1.664,-1.664,0,-1.6479,-1.6523,-1.6483,-1.6522,-1.6531,-1.6471,-1.6523,-1.6524,-1.653,-1.6538,-1.6503,-1.6554,-1.655,-1.6617,-1.6646,-1.6653,-1.6667,-1.6632,-1.6764,-1.6778,-1.679,-1.6833,-1.685,-1.6645,-1.6645,-1.6644,-1.6643,0,-1.6613,-1.6644,-1.6685,-1.6692,-1.6705,-1.675,-1.6718,-1.6737,-1.6709,-1.6692,-1.6744,-1.6737,-1.6756,-1.6769,-1.6742,-1.6832,-1.6813,-1.6772,-1.671,-1.6815,-1.6854,-1.687,-1.6653,-1.6651,-1.665,-1.6648,0,0,-1.6792,-1.6775,-1.6791,-1.6794,-1.6787,-1.6811,-1.6854,-1.6871,-1.6889,-1.6895,-1.6931,-1.6967,-1.6929,-1.6937,-1.691,-1.6946,-1.7046,-1.69,-1.69,-1.6929,-1.7146,-1.7179,-1.7198,-1.702,-1.7022,-1.7025,-1.7147,0,-1.6911,-1.6983,-1.6948,-1.7025,-1.7054,-1.6997,-1.7034,-1.7035,-1.7021,-1.7045,-1.7029,-1.7057,-1.7003,-1.7008,-1.7041,-1.7027,-1.7089,-1.7017,-1.7055,-1.7057,-1.7058,-1.7219,-1.7253,-1.7368,-1.7162,-1.7164,-1.7166,0,-1.7059,-1.7071,-1.715,-1.7139,-1.715,-1.7184,-1.7198,-1.722,-1.722,-1.7208,-1.7217,-1.7181,-1.7224,-1.7161,-1.722,-1.7172,-1.7185,-1.7181,-1.7184,-1.7188,-1.7119,-1.7229,-1.7404,-1.7422,-1.719,-1.7188,-1.7186,0,-1.7185,-1.722,-1.7272,-1.7276,-1.7263,-1.7289,-1.7285,-1.7282,-1.7295,-1.7307,-1.7315,-1.7332,-1.7342,-1.7357,-1.7328,-1.7284,-1.7392,-1.7326,-1.7384,-1.7385,-1.7411,-1.741,-1.7593,-1.7416,-1.7416,-1.7416,-1.7415,0,-1.7322,-1.7373,-1.7328,-1.7361,-1.7417,-1.7376,-1.7433,-1.7423,-1.7421,-1.7452,-1.7403,-1.7433,-1.7391,-1.7417,-1.7395,-1.7448,-1.7453,-1.7445,-1.7439,-1.745,-1.7452,-1.746,-1.7452,-1.742,-1.7419,-1.7418,-1.7417,0,-1.7472,-1.7444,-1.7497,-1.7481,-1.7478,-1.7521,-1.7507,-1.7537,-1.7519,-1.7559,-1.7565,-1.7538,-1.7567,-1.7538,-1.7565,-1.7549,-1.7622,-1.7603,-1.7622,-1.7617,-1.7678,-1.7673,-1.7874,-1.7899,-1.7705,-1.7707,-1.7708,0,-1.7563,-1.7601,-1.7588,-1.7605,-1.7604,-1.7631,-1.7644,-1.7605,-1.7621,-1.7624,-1.7654,-1.7678,-1.7695,-1.7744,-1.7727,-1.7748,-1.773,-1.7799,-1.7733,-1.7744,-1.7733,-1.7732,-1.7737,-1.7813,-1.7815,-1.7817,-1.7819,0,-1.7727,-1.7711,-1.773,-1.7746,-1.7762,-1.7773,-1.778,-1.7796,-1.7757,-1.7777,-1.7805,-1.7818,-1.7845,-1.787,-1.7886,-1.7883,-1.7846,-1.7839,-1.7854,-1.7868,-1.7878,-1.7875,-1.7661,-1.7835,-1.7834,-1.7832,-1.7832,-1.7831,-1.7851,-1.7882,-1.7879,-1.7903,-1.7904,-1.7912,-1.7939,-1.7925,-1.7947,-1.7965,-1.7941,-1.7977,-1.7976,-1.7993,-1.7995,-1.8022,-1.7993,-1.8014,-1.802,-1.8026,-1.8036,-1.7872,-1.8025,-1.8024,-1.8024,-1.8023,-1.8023,0,-1.8014,-1.8009,-1.8031,-1.8042,-1.8061,-1.8022,-1.8028,-1.8047,-1.8078,-1.8081,-1.8098,-1.8131,-1.8155,-1.8141,-1.8162,-1.8187,-1.817,-1.8194,-1.8193,-1.8193,-1.806,-1.8046,-1.8207,-1.8207,-1.8207,-1.8207,-1.8207,-1.8207,-1.8101,-1.8153,-1.8137,-1.8189,-1.8184,-1.8217,-1.8224,-1.8231,-1.8233,-1.8272,-1.8291,-1.8281,-1.8277,-1.8297,-1.8318,-1.8313,-1.8324,-1.8354,-1.8344,-1.822,-1.8202,-1.8185,-1.8171,-1.8356,-1.8357,-1.8474,-1.8475,-1.8476]},{"header":{"parameterUnit":"m.s-1","parameterCategory":1,"la1":30.2991,"la2":30.254,"lo1":-89.0895,"lo2":-89.0444,"dy":0.0017,"dx":0.0017,"nx":28,"ny":28,"refTime":"2024-10-10T09:00:00:Z","depth":0,"parameterNumber":3,"parameterNumberName":"V-component_of_WINDS"},"data":[0,0,0,0,0,0,0,0,0,0,0,0,0,0,0,0,0,0,0,0,0,0,0,0,0,0,0,0,0,0,0,0,0,0,0,0,0,0,0,0,0,0,0,0,0,0,0,0,0,0,0,0,0,0,0,0,0,0,1.1072,1.107,0,1.0897,1.0895,1.0893,1.082,1.0821,1.0821,1.0822,1.0632,1.0627,1.0621,0,0,0,0,0,0,0,0,0,0,0,0,0,1.1335,1.1331,1.1072,1.107,1.1068,1.0898,1.0895,1.0893,1.082,1.0821,1.0821,1.0822,1.0634,1.0627,1.0621,0,0,0,0,0,0,0,0,0,0,0,0,0,1.1196,1.1329,1.1073,1.1012,1.1004,1.0898,1.0895,1.0892,1.082,1.0821,1.0821,1.0822,1.0636,1.0628,1.062,1.0558,0,0,1.0595,1.0592,0,0,0,0,0,0,0,0,1.1204,1.1187,1.1023,1.1016,1.1007,1.0882,1.0918,1.078,1.082,1.089,1.0822,1.0822,1.0714,1.0699,1.0665,1.0549,1.0541,1.0594,1.0589,1.0586,1.0584,0,0,0,0,0,0,0,1.1214,1.1194,1.1003,1.102,1.1011,1.099,1.0971,1.0892,1.08,1.0884,1.0878,1.0859,1.071,1.0673,1.066,1.0538,1.0595,1.0587,1.0582,1.0579,1.0363,1.0362,0,0,0,0,0,0,1.1235,1.1202,1.1008,1.0997,1.111,1.0985,1.0964,1.0921,1.0801,1.0784,1.0859,1.0856,1.0686,1.0669,1.0653,1.0572,1.0586,1.0578,1.0574,1.0364,1.0362,1.0362,0,0,0,0,0,0,1.1241,1.1218,1.1015,1.1098,1.1071,1.098,1.0933,1.0917,1.0881,1.0782,1.0765,1.0839,1.0686,1.0664,1.0583,1.0565,1.0575,1.0567,1.0365,1.0363,1.0362,1.0411,0,0,0,0,0,0,1.1249,1.1221,1.1199,1.1099,1.1067,1.0951,1.0932,1.0914,1.0868,1.0863,1.0759,1.0742,1.0685,1.0595,1.0575,1.0554,1.0561,1.0366,1.0364,1.0362,1.041,1.0411,1.0412,0,0,0,0,0,1.1259,1.1217,1.1198,1.1175,1.1037,1.095,1.0932,1.087,1.0867,1.0842,1.0779,1.0745,1.0571,1.0588,1.0564,1.054,1.0366,1.0364,1.0363,1.041,1.0411,1.0412,0,0,0,0,0,0,1.1313,1.1203,1.118,1.1106,1.1039,1.0938,1.0905,1.0873,1.0803,1.0801,1.0725,1.0701,1.0626,1.0575,1.0596,1.0474,1.0466,1.0459,1.051,1.051,1.0511,1.0524,1.0554,0,0,0,0,0,1.1317,1.1259,1.1164,1.1107,1.1075,1.0997,1.0956,1.0915,1.0841,1.0811,1.0742,1.0668,1.0597,1.0551,1.0479,1.0404,1.0379,1.0375,1.0376,1.0378,1.0372,1.0327,1.0324,1.0355,1.0355,1.0355,0,0,1.1323,1.1256,1.1222,1.1117,1.106,1.0998,1.0972,1.0908,1.0861,1.0799,1.0719,1.0667,1.0579,1.0501,1.0462,1.0455,1.0358,1.0375,1.0377,1.037,1.0325,1.0322,1.0319,1.0354,1.0354,1.0354,0,0,1.1303,1.1247,1.1194,1.1138,1.1054,1.1002,1.099,1.0895,1.0858,1.0778,1.0731,1.0672,1.0551,1.0491,1.0445,1.0405,1.037,1.0383,1.0387,1.0344,1.0342,1.0339,1.0324,1.0319,1.0378,1.0379,1.0379,0,1.132,1.1228,1.1169,1.1108,1.1062,1.1009,1.0953,1.0901,1.0796,1.0764,1.0759,1.0607,1.0545,1.0451,1.0442,1.0407,1.0388,1.0394,1.0348,1.0345,1.0341,1.0325,1.032,1.0381,1.038,1.038,1.038,0,1.1253,1.119,1.1157,1.1062,1.1012,1.0954,1.0884,1.084,1.0804,1.0752,1.067,1.0594,1.0507,1.0482,1.0444,1.0383,1.0381,1.0363,1.0353,1.0341,1.0325,1.0319,1.0384,1.0383,1.0382,1.0382,0,0,1.1259,1.1135,1.1123,1.1079,1.0984,1.0932,1.0872,1.079,1.0754,1.0684,1.0629,1.053,1.0513,1.046,1.0416,1.0379,1.0351,1.0365,1.0362,1.0364,1.0277,1.029,1.0284,1.0329,1.0328,1.0327,1.0284,0,1.1224,1.1116,1.1062,1.0976,1.0917,1.0867,1.0813,1.0747,1.0698,1.0638,1.0582,1.0512,1.0496,1.0464,1.0426,1.0363,1.0332,1.0366,1.0274,1.0272,1.0296,1.0276,1.0289,1.0252,1.0277,1.0276,1.0275,0,1.1169,1.1104,1.1013,1.0926,1.0899,1.0852,1.0774,1.0718,1.0642,1.0609,1.0552,1.051,1.0441,1.0439,1.0341,1.0365,1.0325,1.0289,1.0286,1.0272,1.0271,1.026,1.0239,1.0233,1.0265,1.0266,1.0267,0,1.1181,1.107,1.1002,1.0966,1.0863,1.0831,1.0786,1.0711,1.0666,1.0597,1.0566,1.0488,1.0445,1.0385,1.0321,1.0326,1.023,1.0222,1.0198,1.0199,1.0177,1.0179,1.0147,1.0155,1.0156,1.0156,1.0156,0,1.1146,1.1092,1.1006,1.0964,1.0901,1.0839,1.0778,1.0729,1.0663,1.0608,1.0559,1.0508,1.0429,1.0367,1.0317,1.0244,1.0225,1.0194,1.018,1.0197,1.0201,1.0167,1.0167,1.0154,1.0154,1.0155,1.0155,0,1.1147,1.1088,1.101,1.092,1.0897,1.0854,1.0776,1.0731,1.0682,1.0613,1.0593,1.0512,1.0437,1.037,1.0269,1.0235,1.016,1.0144,1.0187,1.0179,1.0158,1.016,1.0101,1.009,1.0108,1.0108,1.0108,0,1.1128,1.1086,1.0994,1.0956,1.0913,1.0851,1.0806,1.0744,1.0698,1.061,1.0575,1.0498,1.0433,1.0315,1.0245,1.0168,1.0149,1.0134,1.0136,1.0154,1.0146,1.0149,1.0143,1.0133,1.0134,1.0134,1.0134,0,1.11,1.1074,1.1013,1.0942,1.0891,1.083,1.0768,1.0739,1.0664,1.0615,1.0541,1.049,1.039,1.0313,1.0228,1.0178,1.0142,1.0135,1.0124,1.0139,1.0165,1.0149,1.0186,1.0135,1.0135,1.0135,1.0135,1.0135,1.1089,1.105,1.0979,1.0913,1.0861,1.0805,1.0759,1.0705,1.0643,1.0559,1.0525,1.0449,1.0373,1.0257,1.0208,1.0145,1.0138,1.0123,1.0119,1.0116,1.0119,1.0178,1.013,1.0129,1.0129,1.0129,1.0129,0,1.1057,1.1011,1.095,1.0868,1.0815,1.0792,1.0722,1.0679,1.0614,1.0549,1.0487,1.04,1.0326,1.0253,1.0173,1.0137,1.0119,1.0118,1.0119,1.0108,1.013,1.0146,1.0135,1.0135,1.0135,1.0135,1.0135,1.0135,1.1034,1.0966,1.0932,1.0837,1.0789,1.0717,1.068,1.0627,1.0575,1.0482,1.0422,1.0376,1.0307,1.0223,1.0153,1.0133,1.0105,1.0109,1.0084,1.0106,1.0106,1.0106,1.0121,1.0104,1.0104,1.0066,1.0066,1.0066]}]]